K0VXP-1 Weather Reports


Display with metric or nautical units.
time (UTC)temp
F
wind
direction
speed
MPH
gust
MPH
rain 1hr
in
rain 24hr
in
rain mn
in
humidity
%
barometer
mb
20260508231534 67 261 9.0 17.0 0.00 0.00 0.00 30 1018.1
20260508230031 67 279 11.0 18.0 0.00 0.00 0.00 29 1018.2
20260508224540 65 288 5.0 11.0 0.00 0.00 0.00 33 1018.4
20260508223043 66 313 9.0 18.0 0.00 0.00 0.00 32 1018.4
20260508221530 67 294 10.0 15.0 0.00 0.00 0.00 32 1018.5
20260508220032 69 240 11.0 21.0 0.00 0.00 0.00 28 1018.6
20260508214549 68 244 12.0 23.0 0.00 0.00 0.00 29 1018.6
20260508213031 68 306 10.0 20.0 0.00 0.00 0.00 30 1018.7
20260508211529 67 284 11.0 21.0 0.00 0.00 0.00 30 1018.8
20260508210036 67 350 10.0 19.0 0.00 0.00 0.00 30 1019.0
20260508204535 66 280 12.0 27.0 0.00 0.00 0.00 29 1019.1
20260508203030 67 259 9.0 18.0 0.00 0.00 0.00 31 1019.1
20260508201531 67 266 11.0 18.0 0.00 0.00 0.00 29 1019.2
20260508200030 66 328 8.0 18.0 0.00 0.00 0.00 33 1019.4
20260508194530 66 306 9.0 19.0 0.00 0.00 0.00 33 1019.3
20260508193035 65 269 5.0 16.0 0.00 0.00 0.00 31 1019.5
20260508191545 65 283 11.0 18.0 0.00 0.00 0.00 32 1019.6
20260508190048 64 299 9.0 16.0 0.00 0.00 0.00 33 1019.8
20260508184535 64 280 11.0 20.0 0.00 0.00 0.00 34 1019.9
20260508183037 64 307 8.0 18.0 0.00 0.00 0.00 36 1020.1
20260508181531 62 271 6.0 16.0 0.00 0.00 0.00 35 1020.3
20260508180034 62 240 9.0 18.0 0.00 0.00 0.00 38 1020.4
20260508174537 61 216 7.0 14.0 0.00 0.00 0.00 39 1020.6
20260508173032 61 242 3.0 14.0 0.00 0.00 0.00 39 1020.8
20260508171533 60 296 3.0 10.0 0.00 0.00 0.00 41 1020.9
20260508170037 59 300 4.0 9.0 0.00 0.00 0.00 39 1021.3
20260508164542 59 260 4.0 11.0 0.00 0.00 0.00 42 1021.4
20260508163032 58 187 2.0 8.0 0.00 0.00 0.00 41 1021.4
20260508161531 57 0 4.0 9.0 0.00 0.00 0.00 40 1021.4
20260508160033 56 230 4.0 7.0 0.00 0.00 0.00 44 1021.4
20260508154535 56 222 3.0 7.0 0.00 0.00 0.00 46 1021.4
20260508153043 54 215 2.0 5.0 0.00 0.00 0.00 53 1021.5
20260508151530 51 182 1.0 5.0 0.00 0.00 0.00 56 1021.7
20260508150033 49 234 1.0 4.0 0.00 0.00 0.00 59 1021.9
20260508144534 49 236 2.0 7.0 0.00 0.00 0.00 60 1021.8
20260508143029 48 0 2.0 6.0 0.00 0.00 0.00 60 1021.8
20260508141529 48 247 3.0 5.0 0.00 0.00 0.00 57 1021.9
20260508140032 49 256 2.0 3.0 0.00 0.00 0.00 56 1021.9
20260508134534 48 25 2.0 4.0 0.00 0.00 0.00 56 1021.8
20260508133032 46 65 4.0 7.0 0.00 0.00 0.00 59 1021.7
20260508131529 44 57 3.0 5.0 0.00 0.00 0.00 63 1021.5
20260508130041 41 56 3.0 5.0 0.00 0.00 0.00 67 1021.3
20260508124528 39 60 4.0 5.0 0.00 0.00 0.00 70 1021.1
20260508123032 37 65 4.0 8.0 0.00 0.00 0.00 71 1021.0
20260508121532 37 65 5.0 8.0 0.00 0.00 0.00 69 1020.7
20260508120030 38 82 4.0 6.0 0.00 0.00 0.00 69 1020.7
20260508114531 38 78 5.0 8.0 0.00 0.00 0.00 69 1020.6
20260508113028 38 76 4.0 7.0 0.00 0.00 0.00 69 1020.4
20260508111528 38 76 6.0 9.0 0.00 0.00 0.00 69 1020.4
20260508110031 38 70 4.0 8.0 0.00 0.00 0.00 68 1020.4
20260508104533 38 64 4.0 8.0 0.00 0.00 0.00 68 1020.4
20260508103037 39 65 4.0 8.0 0.00 0.00 0.00 67 1020.4
20260508101531 39 80 4.0 7.0 0.00 0.00 0.00 67 1020.2
20260508100028 39 69 4.0 7.0 0.00 0.00 0.00 67 1020.4
20260508094531 39 76 5.0 7.0 0.00 0.00 0.00 68 1020.3
20260508093038 39 69 4.0 7.0 0.00 0.00 0.00 69 1020.3
20260508091534 38 55 5.0 8.0 0.00 0.00 0.00 70 1020.2
20260508090031 39 51 6.0 10.0 0.00 0.00 0.00 69 1020.4
20260508084530 40 69 5.0 8.0 0.00 0.00 0.00 68 1020.5
20260508083033 42 75 4.0 7.0 0.00 0.00 0.00 66 1020.4
20260508081532 42 46 1.0 4.0 0.00 0.00 0.00 66 1020.7
20260508080030 42 46 2.0 5.0 0.00 0.00 0.00 65 1020.7
20260508074530 43 47 2.0 4.0 0.00 0.00 0.00 64 1020.7
20260508073036 42 161 1.0 6.0 0.00 0.00 0.00 64 1020.7
20260508071533 43 0 1.0 8.0 0.00 0.00 0.00 64 1020.8
20260508070032 43 70 5.0 8.0 0.00 0.00 0.00 64 1020.5
20260508064538 44 68 5.0 9.0 0.00 0.00 0.00 63 1020.6
20260508063046 45 82 6.0 8.0 0.00 0.00 0.00 63 1020.7
20260508061531 45 49 6.0 10.0 0.00 0.00 0.00 63 1020.8
20260508060032 44 68 5.0 9.0 0.00 0.00 0.00 63 1020.8
20260508054531 44 61 4.0 8.0 0.00 0.00 0.00 62 1020.9
20260508053030 44 74 5.0 8.0 0.00 0.00 0.00 62 1020.5
20260508051532 45 83 5.0 8.0 0.00 0.00 0.00 60 1020.8
20260508050036 45 57 4.0 6.0 0.00 0.00 0.00 61 1021.1
20260508044530 45 57 4.0 7.0 0.00 0.00 0.00 60 1020.9
20260508043046 45 81 4.0 8.0 0.00 0.00 0.00 60 1021.3
20260508041530 46 63 4.0 8.0 0.00 0.00 0.00 58 1021.3
20260508040037 46 69 4.0 8.0 0.00 0.00 0.00 58 1021.2
20260508034532 46 55 5.0 7.0 0.00 0.00 0.00 59 1021.3
20260508033032 47 61 4.0 8.0 0.00 0.00 0.00 58 1020.7
20260508031530 47 76 4.0 7.0 0.00 0.00 0.00 56 1020.6
20260508030039 48 63 3.0 4.0 0.00 0.00 0.00 55 1020.5
20260508024530 48 336 2.0 3.0 0.00 0.00 0.00 54 1020.4
20260508023031 48 336 1.0 4.0 0.00 0.00 0.00 52 1020.1
20260508021531 49 303 2.0 5.0 0.00 0.00 0.00 52 1020.1
20260508020040 50 316 3.0 7.0 0.00 0.00 0.00 51 1020.1
20260508014532 51 288 5.0 10.0 0.00 0.00 0.00 49 1020.2
20260508013034 52 277 6.0 11.0 0.00 0.00 0.00 48 1020.2
20260508011530 52 283 7.0 12.0 0.00 0.00 0.00 47 1020.1
20260508010033 53 286 5.0 11.0 0.00 0.00 0.00 46 1019.9
20260508004533 54 293 6.0 12.0 0.00 0.00 0.00 45 1019.9
20260508003031 54 295 8.0 14.0 0.00 0.00 0.00 43 1019.9
20260508001556 55 285 6.0 13.0 0.00 0.00 0.00 44 1019.9
20260508000029 55 308 7.0 13.0 0.00 0.00 0.00 43 1019.9
20260507234534 56 274 4.0 11.0 0.00 0.00 0.00 42 1019.8
20260507233031 57 305 5.0 12.0 0.00 0.00 0.00 42 1019.7